Welcome to the New NWS' Forecast!
Most changes are behind the scenes, but click here for differences you might notice.

Regional Weather Roundup (RWR)

Issued by Sioux Falls, SD (FSD)

                            
000
ASUS43 KFSD 200010
RWRFSD

WEATHER ROUNDUP FOR SE SOUTH DAKOTA/SW MINNESOTA/NW IOWA
NATIONAL WEATHER SERVICE SIOUX FALLS SD
600 PM CST MON NOV 19 2018

NOTE: "FAIR" INDICATES FEW OR NO CLOUDS BELOW 12,000 FEET WITH NO
SIGNIFICANT WEATHER AND OR OBSTRUCTIONS TO VISIBILITY.


SDZ038>040-050-052>070-200100-
SOUTHEAST SOUTH DAKOTA
  
CITY           SKY/WX    TMP DP  RH WIND       PRES   REMARKS
BROOKINGS      CLEAR     11   6  81 N8        30.26R WCI  -1          
CHAMBERLAIN    CLOUDY    22  15  72 NE6       30.28R WCI  15          
6HR MIN TEMP:  22; 6HR MAX TEMP:  26;                                

HURON          CLEAR     12   6  77 N7        30.31R WCI   1          
6HR MIN TEMP:  12; 6HR MAX TEMP:  22;                                

MADISON          N/A     14  12  92 N7        30.25R WCI   4          
MITCHELL       FAIR      17   9  70 N8        30.31R WCI   7          
6HR MIN TEMP:  17; 6HR MAX TEMP:  26;                                

SIOUX FALLS    CLEAR     20  12  71 N9        30.26R WCI   9          
6HR MIN TEMP:  20; 6HR MAX TEMP:  28;                                

WINNER         CLOUDY    26  18  71 NE5       30.25R WCI  20          
YANKTON        CLEAR     21  15  78 NW9       30.28R WCI  11          
$$

MNZ071-072-080-081-089-090-097-098-200100-
SOUTHWEST MINNESOTA
  
CITY           SKY/WX    TMP DP  RH WIND       PRES   REMARKS
FAIRMONT       FLURRIES  20  16  84 N14       30.24R WCI   7          
JACKSON        FLURRIES  18  14  86 N14G24    30.23R WCI   4          
LUVERNE        CLEAR     18  10  73 N5        30.26R WCI  11          
MARSHALL       PTCLDY     9   7  92 NW10      30.30R WCI  -6          
6HR MIN TEMP:  11; 6HR MAX TEMP:  17; 6HR PCP: TRACE;                

MONTEVIDEO     CLEAR     10   7  85 N8        30.30R WCI  -1          
PIPESTONE      CLEAR     12  10  92 N6        30.24R WCI   3          
REDWOOD FALLS  FLURRIES  19  13  77 NW8       30.27R WCI   9          
TRACY          LGT SNOW  15  11  86 NW12      30.27R WCI   1          
WINDOM         FLURRIES  16  12  86 NW14      30.23R WCI   1          
WORTHINGTON    CLOUDY    11   8  88 N9        30.25R WCI  -2          
$$

IAZ001>003-012>014-020>022-031-032-NEZ013-014-SDZ071-200100-
NORTHWEST IOWA
  
CITY           SKY/WX    TMP DP  RH WIND       PRES   REMARKS
CHEROKEE       MOCLDY    21  18  86 N7        30.25R WCI  12          
DENISON        CLOUDY    27  19  74 N12       30.25R WCI  16          
ESTHERVILLE    CLOUDY    17  15  92 NW16      30.24R WCI   2          
ORANGE CITY    CLEAR     23  18  80 N8        30.24R WCI  14          
SHELDON        CLEAR     16  14  93 N12       30.23R WCI   3          
SIOUX CITY     CLEAR     25  16  68 N10       30.26R WCI  15          
6HR MIN TEMP:  24; 6HR MAX TEMP:  34;                                

SPENCER        CLOUDY    16  11  80 N13       30.25R WCI   2          
6HR MIN TEMP:  16; 6HR MAX TEMP:  26; 6HR PCP: TRACE;                

STORM LAKE     CLOUDY    19  18  93 N15       30.22R WCI   5          
$$
 
ABBREVIATIONS USED IN REMARKS
   TC - TEMPERATURE IN CELSIUS
  WCI - WIND CHILL INDEX
   HX - HEAT INDEX
  VSB - VISIBILITY